| time (UTC) | temp F | wind direction | speed MPH | gust MPH | rain 1hr in | rain 24hr in | rain mn in | humidity % | barometer mb |
| 20260503040022 | 50 | 145 | 0.0 | 6.0 | 0.00 | 0.00 | 0.00 | 40 | 1012.3 |
| 20260503034521 | 50 | 167 | 0.0 | 6.0 | 0.00 | 0.00 | 0.00 | 42 | 1012.2 |
| 20260503033020 | 52 | 138 | 0.0 | 3.0 | 0.00 | 0.00 | 0.00 | 38 | 1012.0 |
| 20260503031520 | 52 | 145 | 3.0 | 8.0 | 0.00 | 0.00 | 0.00 | 40 | 1011.8 |
| 20260503030026 | 51 | 144 | 0.0 | 0.0 | 0.00 | 0.00 | 0.00 | 41 | 1011.6 |
| 20260503024519 | 51 | 211 | 0.0 | 5.0 | 0.00 | 0.00 | 0.00 | 43 | 1011.4 |
| 20260503023019 | 51 | 206 | 0.0 | 6.0 | 0.00 | 0.00 | 0.00 | 44 | 1011.3 |
| 20260503021518 | 53 | 207 | 3.0 | 7.0 | 0.00 | 0.00 | 0.00 | 42 | 1011.3 |
| 20260503020017 | 55 | 221 | 0.0 | 6.0 | 0.00 | 0.00 | 0.00 | 38 | 1011.3 |
| 20260503014517 | 58 | 250 | 6.0 | 9.0 | 0.00 | 0.00 | 0.00 | 33 | 1011.2 |
| 20260503013028 | 60 | 284 | 6.0 | 11.0 | 0.00 | 0.00 | 0.00 | 30 | 1011.1 |
| 20260503011514 | 62 | 256 | 8.0 | 12.0 | 0.00 | 0.00 | 0.00 | 29 | 1011.2 |
| 20260503010014 | 62 | 266 | 8.0 | 13.0 | 0.00 | 0.00 | 0.00 | 26 | 1011.2 |
| 20260503004513 | 63 | 273 | 8.0 | 14.0 | 0.00 | 0.00 | 0.00 | 23 | 1011.3 |
| 20260503003016 | 64 | 275 | 0.0 | 10.0 | 0.00 | 0.00 | 0.00 | 21 | 1011.3 |
| 20260503001512 | 64 | 264 | 2.0 | 9.0 | 0.00 | 0.00 | 0.00 | 22 | 1011.3 |
| 20260503000011 | 64 | 276 | 6.0 | 13.0 | 0.00 | 0.00 | 0.00 | 21 | 1011.3 |
| 20260502234513 | 65 | 248 | 6.0 | 15.0 | 0.00 | 0.00 | 0.00 | 22 | 1011.3 |
| 20260502233010 | 65 | 202 | 7.0 | 17.0 | 0.00 | 0.00 | 0.00 | 22 | 1011.4 |
| 20260502231508 | 65 | 301 | 10.0 | 14.0 | 0.00 | 0.00 | 0.00 | 23 | 1011.4 |
| 20260502230009 | 65 | 254 | 12.0 | 15.0 | 0.00 | 0.00 | 0.00 | 23 | 1011.5 |
| 20260502224505 | 65 | 272 | 3.0 | 18.0 | 0.00 | 0.00 | 0.00 | 24 | 1011.7 |
| 20260502223005 | 66 | 279 | 9.0 | 12.0 | 0.00 | 0.00 | 0.00 | 25 | 1011.8 |
| 20260502221502 | 65 | 290 | 3.0 | 10.0 | 0.00 | 0.00 | 0.00 | 26 | 1011.9 |
| 20260502220104 | 65 | 306 | 5.0 | 10.0 | 0.00 | 0.00 | 0.00 | 26 | 1012.2 |
| 20260502214559 | 65 | 290 | 0.0 | 11.0 | 0.00 | 0.00 | 0.00 | 25 | 1012.5 |
| 20260502213102 | 64 | 284 | 2.0 | 7.0 | 0.00 | 0.00 | 0.00 | 26 | 1012.7 |
| 20260502211554 | 65 | 303 | 3.0 | 9.0 | 0.00 | 0.00 | 0.00 | 27 | 1012.9 |
| 20260502210051 | 64 | 26 | 3.0 | 11.0 | 0.00 | 0.00 | 0.00 | 28 | 1013.3 |
| 20260502204548 | 63 | 288 | 4.0 | 7.0 | 0.00 | 0.00 | 0.00 | 29 | 1013.5 |
| 20260502203110 | 62 | 288 | 0.0 | 7.0 | 0.00 | 0.00 | 0.00 | 28 | 1013.6 |
| 20260502201552 | 62 | 318 | 2.0 | 8.0 | 0.00 | 0.00 | 0.00 | 28 | 1013.8 |
| 20260502200044 | 64 | 243 | 4.0 | 8.0 | 0.00 | 0.00 | 0.00 | 27 | 1014.0 |
| 20260502194541 | 63 | 305 | 6.0 | 13.0 | 0.00 | 0.00 | 0.00 | 27 | 1014.2 |
| 20260502193055 | 63 | 239 | 2.0 | 8.0 | 0.00 | 0.00 | 0.00 | 26 | 1014.3 |
| 20260502191540 | 64 | 226 | 3.0 | 9.0 | 0.00 | 0.00 | 0.00 | 28 | 1014.5 |
| 20260502190041 | 62 | 119 | 1.0 | 7.0 | 0.00 | 0.00 | 0.00 | 27 | 1014.9 |
| 20260502184539 | 62 | 235 | 11.0 | 15.0 | 0.00 | 0.00 | 0.00 | 29 | 1014.7 |
| 20260502183031 | 61 | 119 | 4.0 | 10.0 | 0.00 | 0.00 | 0.00 | 27 | 1015.5 |
| 20260502181530 | 61 | 145 | 3.0 | 7.0 | 0.00 | 0.00 | 0.00 | 30 | 1015.8 |
| 20260502163003 | 52 | 289 | 2.0 | 7.0 | 0.00 | 0.00 | 0.00 | 46 | 1017.4 |
| 20260502161558 | 50 | 288 | 1.0 | 5.0 | 0.00 | 0.00 | 0.00 | 45 | 1017.5 |
| 20260502151606 | 45 | 270 | 0.0 | 2.0 | 0.00 | 0.00 | 0.00 | 51 | 1017.9 |
| 20260502123011 | 30 | 268 | 1.0 | 9.0 | 0.00 | 0.00 | 0.00 | 71 | 1018.2 |
| 20260502121511 | 32 | 208 | 0.0 | 2.0 | 0.00 | 0.00 | 0.00 | 68 | 1018.1 |
| 20260502114506 | 32 | 208 | 0.0 | 3.0 | 0.00 | 0.00 | 0.00 | 71 | 1018.3 |
| 20260502113004 | 32 | 208 | 1.0 | 4.0 | 0.00 | 0.00 | 0.00 | 69 | 1018.2 |
| 20260502111503 | 32 | 208 | 0.0 | 0.0 | 0.00 | 0.00 | 0.00 | 68 | 1018.2 |
| 20260502110002 | 33 | 208 | 0.0 | 0.0 | 0.00 | 0.00 | 0.00 | 69 | 1018.1 |
| 20260502104610 | 33 | 208 | 0.0 | 0.0 | 0.00 | 0.00 | 0.00 | 69 | 1018.2 |
| 20260502103059 | 33 | 208 | 0.0 | 0.0 | 0.00 | 0.00 | 0.00 | 65 | 1018.3 |
| 20260502101610 | 34 | 208 | 0.0 | 4.0 | 0.00 | 0.00 | 0.00 | 65 | 1018.2 |
| 20260502070054 | 38 | 215 | 0.0 | 1.0 | 0.00 | 0.00 | 0.00 | 58 | 1017.8 |
| 20260502064533 | 38 | 215 | 1.0 | 4.0 | 0.00 | 0.00 | 0.00 | 61 | 1017.7 |
| 20260502063034 | 38 | 215 | 3.0 | 4.0 | 0.00 | 0.00 | 0.00 | 60 | 1017.5 |
| 20260502061528 | 38 | 215 | 2.0 | 4.0 | 0.00 | 0.00 | 0.00 | 59 | 1017.6 |
| 20260502060036 | 40 | 215 | 0.0 | 2.0 | 0.00 | 0.00 | 0.00 | 56 | 1017.5 |
| 20260502054538 | 39 | 215 | 3.0 | 6.0 | 0.00 | 0.00 | 0.00 | 59 | 1017.5 |
| 20260502053024 | 40 | 216 | 4.0 | 5.0 | 0.00 | 0.00 | 0.00 | 54 | 1017.4 |
| 20260502051524 | 41 | 216 | 0.0 | 4.0 | 0.00 | 0.00 | 0.00 | 54 | 1017.3 |
| 20260502050024 | 41 | 216 | 2.0 | 5.0 | 0.00 | 0.00 | 0.00 | 52 | 1017.3 |
| 20260502044522 | 42 | 217 | 1.0 | 4.0 | 0.00 | 0.00 | 0.00 | 49 | 1017.3 |
| 20260502043023 | 43 | 217 | 0.0 | 0.0 | 0.00 | 0.00 | 0.00 | 47 | 1017.3 |
| 20260502041534 | 43 | 217 | 3.0 | 6.0 | 0.00 | 0.00 | 0.00 | 46 | 1017.2 |